Regional Weather Roundup
Issued by NWS Newport/Morehead, NC

Current Version | Previous Version | Text Only | Print | Product List | Glossary On
Versions: 1 2 3 4 5 6 7 8 9 10 11 12 13 14 15 16 17 18 19 20 21 22 23 24 25 26 27 28 29 30 31 32 33 34 35 36 37 38 39 40 41 42 43 44 45 46 47 48 49 50
000
ASUS42 KMHX 210312
RWRMHX
WEATHER ROUNDUP FOR EASTERN NORTH CAROLINA
NATIONAL WEATHER SERVICE NEWPORT/MOREHEAD CITY NC
1100 PM EDT MON APR 20 2015

NOTE: "FAIR" INDICATES FEW OR NO CLOUDS BELOW 12,000 FEET
WITH NO SIGNIFICANT WEATHER AND/OR OBSTRUCTIONS TO VISIBILITY

NCZ015>017-031-032-045>047-102-103-210400-
NORTH COAST

CITY           SKY/WX    TMP DP  RH WIND       PRES   REMARKS
EDENTON        CLOUDY    69  63  80 SW14      29.71S
ELIZABETH CITY CLOUDY    70  62  76 S13G21    29.70F
KITTY HAWK     CLOUDY    70  64  79 SW10G18   29.72S
MANTEO         CLOUDY    70  64  83 SW18G24   29.74R

$$

NCZ045>047-081-094-103-104-210400-
CENTRAL COAST

CITY           SKY/WX    TMP DP  RH WIND       PRES   REMARKS
FRISCO         CLOUDY    68  66  93 SW13G24   29.77S
SWANQUARTER      N/A     70 N/A N/A SW14G29   29.71S

$$

NCZ095-097-098-100-101-210400-
SOUTHERN COAST

CITY           SKY/WX    TMP DP  RH WIND       PRES   REMARKS
BEAUFORT       CLOUDY    68  66  93 SW13      29.78S
CEDAR ISLAND     N/A     70 N/A N/A S10G18    29.79F
JACKSONVILLE   CLOUDY    68  63  84 S10       29.76S
PINEY ISLAND   CLOUDY   N/A N/A N/A SW17G24   29.78R
WILMINGTON     CLOUDY    69  63  81 S10       29.77S


$$

NCZ011>013-027>030-043-044-078>080-089-090>093-098-210400-
COASTAL PLAIN

CITY           SKY/WX    TMP DP  RH WIND       PRES   REMARKS
AHOSKIE        CLOUDY    70  62  75 S8        29.69S
CLINTON        MOCLDY    67  66  94 S7        29.75R
ELIZABETHTOWN  MOCLDY    68  64  88 S7        29.75R
GOLDSBORO      CLOUDY    69  64  83 S12       29.70S
GREENVILLE     CLOUDY    70  63  78 SW13      29.75S
HAVELOCK       CLOUDY    69  63  81 S12G18    29.77F
KENANSVILLE    CLOUDY    67  63  85 CALM      29.75S
KINSTON        CLOUDY    70  63  80 S10       29.73F
NEW BERN       CLOUDY    68  63  84 SW7       29.76F
RICHLANDS      CLOUDY    66  61  82 S10       29.76R
ROCKY MOUNT    CLOUDY    70  62  76 S10       29.70R
WASHINGTON     CLOUDY    69  62  79 S9        29.73R
WHITEVILLE     CLOUDY    69  64  84 S10       29.76R

$$

AMZ130-135-150-152-154-156-158-170-250-252-270-ANZ085-086-088-633-658-670-210400-
MARINE OBSERVATIONS

STATION/POSITION TIME  TEMP    WIND        PRES    WAVE   SWELL
                       AIR SEA DIR/SP/G            HT/PER HT/PER
                 (UTC) (F)     (DEG/KT/KT) (MB)    (FT/S) (FT/S)
CHESAPEAKE LIGHT 0300   63     200/ 26/ 27 1004.6
64 E VA BEACH    0250   62 58  200/ 19/ 23 1005.2    7/ 8   5/ 8
DUCK             0200   71 54  200/ 17/ 21 1005.2
2 E DUCK         0211      57                N/A     4/ 7   2/12
10 NE DUCK       NOT AVBL
OREGON INLET     0200   68 68  190/ 19/ 21 1007.1
HATTERAS CG      0200   71 69  200/ 13/ 18 1007.5
DIAMOND BUOY     0250   75 75  210/ 21/ 27 1007.7    6/ 6   2/ 9
CAPE LOOKOUT     0300   68     250/ 10/ 12 1008.4
BEAUFORT LAB     0200   68 65  210/  7/ 11 1007.4
27 SE WRIGHTSVLE 0200   67 71  230/ 14/ 17   N/A
5 SE WRIGHTSVLE  0200   68 65  210/ 14/ 17 1008.7
225 S CAPE HAT   0250   73 73  220/ 17/ 21 1012.7    4/ 6   2/13
41 SE CHARLESTON 0250   73 74  250/ 17/ 21 1009.4    4/ 5   2/ 8

$$


USA.gov is the U.S. government's official web portal to all federal, state and local government web resources and services.